Rochester, NY

7:57 AM EDT on April 21, 2018 (GMT -0400)
Greater Rochester International

Weather History for KROC - August, 2013

Change the Weather History Date:

Monday, August 26, 2013

  Actual Average Record
Temperature  
Mean Temperature 72 °F 68 °F  
Max Temperature 79 °F 78 °F 99 °F (1948)
Min Temperature 65 °F 58 °F 44 °F (1989)
Degree Days  
Heating Degree Days 0 1  
Month to date heating degree days 10 16  
Since 1 June heating degree days 76 96  
Since 1 July heating degree days 18 28  
Cooling Degree Days 7 4  
Month to date cooling degree days 100 137  
Year to date cooling degree days 539 466  
Since 1 June cooling degree days 468 436  
Growing Degree Days 22 (Base 50)    
Moisture  
Dew Point 67 °F    
Average Humidity 81    
Maximum Humidity 93    
Minimum Humidity 68    
Precipitation  
Precipitation 0.47 in 0.11 in 0.58 in (1892)
Month to date precipitation 2.50 2.95  
Year to date precipitation 25.01 22.08  
Snow  
Snow 0.00 in 0.00 in 0.00 in ()
Month to date snowfall 0.0 0.0  
Since 1 June snowfall 0.0 0.0  
Since 1 July snowfall 0.0 0.0  
Snow Depth 0.00 in    
Sea Level Pressure  
Sea Level Pressure 30.01 in    
Wind  
Wind Speed 9 mph (WSW)    
Max Wind Speed 22 mph    
Max Gust Speed 31 mph    
Visibility 7 miles    
Events Rain , Thunderstorm    
T = Trace of Precipitation, MM = Missing Value Source: NWS Daily Summary

Daily Weather History Graph

Daily Weather History Graph

Search for Another Location

Airport or City:

Astronomy

Aug. 26, 2013 Rise Set
Actual Time 6:28 AM EDT 7:55 PM EDT
Civil Twilight 5:58 AM EDT 8:24 PM EDT
Nautical Twilight 5:23 AM EDT 9:00 PM EDT
Astronomical Twilight 4:44 AM EDT 9:38 PM EDT
Moon 10:53 PM EDT (8/26) 12:39 PM EDT (8/26)
Length of Visible Light 14h 26m
Length of Day
13h 26m
Waning Gibbous, 67% of the Moon is Illuminated
Aug 26
Waning Gibbous
Aug 28
Last Quarter
Sep 5
New
Sep 12
First Quarter
Sep 19
Full

Hourly Weather History & Observations

Time (EDT) Temp. Dew Point Humidity Pressure Visibility Wind Dir Wind Speed Gust Speed Precip Events Conditions
12:54 AM 66.0 °F 61.0 °F 84% 30.13 in 10.0 mi SW 8.1 mph - 0.06 in   Overcast
1:54 AM 64.9 °F 62.1 °F 90% 30.11 in 10.0 mi SW 9.2 mph - 0.04 in   Overcast
2:54 AM 66.0 °F 61.0 °F 84% 30.08 in 10.0 mi SW 6.9 mph - N/A   Mostly Cloudy
3:54 AM 66.0 °F 62.1 °F 87% 30.08 in 10.0 mi SW 8.1 mph - N/A   Overcast
4:54 AM 68.0 °F 61.0 °F 78% 30.07 in 10.0 mi SW 8.1 mph - N/A   Mostly Cloudy
5:54 AM 68.0 °F 61.0 °F 78% 30.08 in 10.0 mi SW 8.1 mph - N/A   Mostly Cloudy
6:54 AM 70.0 °F 61.0 °F 73% 30.08 in 10.0 mi SW 10.4 mph - N/A   Overcast
7:54 AM 73.0 °F 62.1 °F 68% 30.09 in 10.0 mi WSW 13.8 mph - N/A   Overcast
8:54 AM 69.1 °F 66.0 °F 90% 30.09 in 3.0 mi SW 9.2 mph - 0.09 in Rain Rain
9:18 AM 69.8 °F 66.2 °F 88% 30.08 in 2.5 mi SW 13.8 mph - 0.07 in Rain Rain
9:36 AM 68.0 °F 66.2 °F 94% 30.05 in 4.0 mi SSW 11.5 mph - 0.08 in Rain Light Rain
9:54 AM 69.1 °F 66.0 °F 90% 30.05 in 7.0 mi SW 12.7 mph - 0.09 in Rain Light Rain
10:54 AM 70.0 °F 66.9 °F 90% 30.07 in 9.0 mi WSW 10.4 mph - 0.00 in Rain Light Rain
11:54 AM 75.0 °F 69.1 °F 82% 30.05 in 10.0 mi West 8.1 mph - 0.00 in   Overcast
12:54 PM 77.0 °F 69.1 °F 76% 30.01 in 10.0 mi WSW 10.4 mph 21.9 mph N/A   Overcast
1:54 PM 78.1 °F 69.1 °F 74% 30.00 in 10.0 mi WSW 12.7 mph - N/A   Overcast
2:42 PM 78.8 °F 69.8 °F 74% 30.00 in 10.0 mi WSW 6.9 mph - N/A   Overcast
2:54 PM 78.1 °F 68.0 °F 71% 30.00 in 10.0 mi West 8.1 mph - 0.00 in Rain Light Rain
3:07 PM 75.2 °F 68.0 °F 78% 30.03 in 1.5 mi West 19.6 mph 31.1 mph 0.02 in Rain , Thunderstorm Heavy Thunderstorms and Rain
3:20 PM 71.6 °F 68.0 °F 88% 30.02 in 3.0 mi West 13.8 mph 28.8 mph 0.08 in Rain , Thunderstorm Thunderstorms and Rain
3:54 PM 71.1 °F 68.0 °F 90% 29.99 in 3.0 mi SW 3.5 mph - 0.16 in Rain , Thunderstorm Thunderstorms and Rain
4:15 PM 71.6 °F 68.0 °F 88% 29.97 in 8.0 mi SSW 4.6 mph - 0.01 in Rain Light Rain
4:54 PM 71.1 °F 69.1 °F 93% 29.95 in 7.0 mi SSW 4.6 mph - 0.01 in   Overcast
5:54 PM 72.0 °F 69.1 °F 91% 29.95 in 6.0 mi West 3.5 mph - 0.00 in   Overcast
6:54 PM 72.0 °F 69.1 °F 91% 29.94 in 7.0 mi WNW 4.6 mph - N/A   Overcast
6:59 PM 71.6 °F 69.8 °F 94% 29.94 in 2.0 mi WNW 4.6 mph - 0.00 in Rain , Thunderstorm Light Thunderstorms and Rain
7:06 PM 71.6 °F 69.8 °F 94% 29.94 in 3.0 mi West 6.9 mph - 0.04 in Rain , Thunderstorm Heavy Thunderstorms and Rain
7:25 PM 71.6 °F 68.0 °F 88% 29.94 in 7.0 mi WNW 8.1 mph - 0.05 in   Overcast
7:54 PM 71.1 °F 68.0 °F 90% 29.94 in 7.0 mi West 9.2 mph - 0.05 in   Overcast
8:08 PM 71.6 °F 68.0 °F 88% 29.94 in 6.0 mi West 12.7 mph - 0.00 in Rain , Thunderstorm Thunderstorms and Rain
8:32 PM 71.6 °F 68.0 °F 88% 29.95 in 10.0 mi West 13.8 mph 20.7 mph 0.03 in   Overcast
8:54 PM 71.1 °F 68.0 °F 90% 29.95 in 9.0 mi West 13.8 mph 23.0 mph 0.03 in   Overcast
9:54 PM 71.1 °F 68.0 °F 90% 29.97 in 7.0 mi West 11.5 mph - N/A   Overcast
10:20 PM 71.6 °F 69.8 °F 94% 29.96 in 7.0 mi WNW 11.5 mph - 0.00 in Rain Light Rain
10:54 PM 71.1 °F 69.1 °F 93% 29.96 in 6.0 mi West 6.9 mph - 0.00 in   Mostly Cloudy
11:02 PM 71.6 °F 68.0 °F 88% 29.95 in 6.0 mi West 8.1 mph - N/A   Scattered Clouds
11:54 PM 71.1 °F 68.0 °F 90% 29.94 in 5.0 mi West 5.8 mph - N/A   Scattered Clouds